sat.trackr.live / text

‹ back to catalog

STARLINK-11307 [DTC]

NORAD 61210 · 2024-171L

PAYLOAD ACTIVE UNKNOWN

§ Identity

Operator
Country
US
Launch date
2024-09-20
Launch site
AFWTR
Launch vehicle
Mass (kg)
RCS (m²)

Purposes: comms

External: N2YO · Heavens-Above · Gunter

§ Orbital elements

Epoch: 2026-05-25T00:40:17.497920Z

Period
91.74 min
Inclination
53.1591°
Eccentricity
0.0001082
Mean motion
15.69715451 rev/d
Perigee alt
359.0 km
Apogee alt
360.4 km
Semi-major
6,737.8 km
B*
1.7483e-5
RAAN
160.2937°
Arg perigee
98.1307°
Mean anomaly
261.9833°
Rev number
9,638

§ Raw data

STARLINK-11307 [DTC]1 61210U 24171L   26145.02798030  .00001530  00000+0  17483-4 0  99972 61210  53.1591 160.2937 0001082  98.1307 261.9833 15.69715451 96385

JSON: /api/v1/satellites/61210 · /tle

For live sub-satellite position, see the globe view (requires WebGL).

§ Visibility from observer

Set your observer location to see the next 7 days of passes ≥ 10°. The values pass through the URL so the page stays shareable.

No JS? Fill the form by hand. The geolocation button needs JavaScript.